Powrót do katalogu

SERVIS 1

AktywnyNaukaSSO
NORAD 28060·PAYLOAD·🇯🇵 Japan

Wystrzelony Oct 30, 2003 z Plesetsk Cosmodrome

Loading…

Następne Przeloty (najbliższe 24 godziny)

TLE

ŚwieżeSource: Space-Track

Epoka: Sep 14, 2026, 11:47 UTC

1 28060U 03050A   26257.49125394  .00000001  00000-0  50200-4 0  9995
2 28060  99.5127 255.4897 0020956 212.4266 311.0337 13.72193025145209

Śledź SERVIS 1 w czasie rzeczywistym z AllMySat

Download on the App Store